| time (UTC) | temp F | wind direction | speed MPH | gust MPH | rain 1hr in | rain 24hr in | rain mn in | humidity % | barometer mb |
| 20260510211537 | 75 | 344 | 0.0 | 4.0 | 0.00 | 0.00 | 0.00 | 45 | 1016.7 |
| 20260510210035 | 74 | 33 | 1.0 | 4.0 | 0.00 | 0.00 | 0.00 | 43 | 1016.7 |
| 20260510204539 | 76 | 308 | 2.0 | 8.0 | 0.00 | 0.00 | 0.00 | 43 | 1016.7 |
| 20260510203034 | 76 | 213 | 1.0 | 6.0 | 0.00 | 0.00 | 0.00 | 46 | 1016.7 |
| 20260510201536 | 75 | 355 | 1.0 | 8.0 | 0.00 | 0.00 | 0.00 | 46 | 1016.7 |
| 20260510200055 | 75 | 349 | 1.0 | 5.0 | 0.00 | 0.00 | 0.00 | 48 | 1016.8 |
| 20260510194528 | 75 | 355 | 1.0 | 8.0 | 0.00 | 0.00 | 0.00 | 49 | 1016.6 |
| 20260510193038 | 74 | 304 | 4.0 | 8.0 | 0.00 | 0.00 | 0.00 | 48 | 1016.8 |
| 20260510191525 | 74 | 300 | 2.0 | 6.0 | 0.00 | 0.00 | 0.00 | 52 | 1016.6 |
| 20260510190029 | 73 | 302 | 0.0 | 8.0 | 0.00 | 0.00 | 0.00 | 54 | 1016.6 |
| 20260510184526 | 74 | 340 | 1.0 | 9.0 | 0.00 | 0.00 | 0.00 | 55 | 1016.6 |
| 20260510183041 | 73 | 341 | 2.0 | 8.0 | 0.00 | 0.00 | 0.00 | 57 | 1016.6 |
| 20260510181528 | 74 | 320 | 1.0 | 6.0 | 0.00 | 0.00 | 0.00 | 60 | 1016.6 |
| 20260510180024 | 74 | 313 | 2.0 | 6.0 | 0.00 | 0.00 | 0.00 | 60 | 1016.7 |
| 20260510174521 | 73 | 328 | 0.0 | 5.0 | 0.00 | 0.00 | 0.00 | 59 | 1016.6 |
| 20260510173020 | 74 | 314 | 2.0 | 5.0 | 0.00 | 0.00 | 0.00 | 57 | 1016.7 |
| 20260510171516 | 74 | 296 | 2.0 | 7.0 | 0.00 | 0.00 | 0.00 | 58 | 1016.7 |
| 20260510170012 | 73 | 190 | 0.0 | 6.0 | 0.00 | 0.00 | 0.00 | 58 | 1016.7 |
| 20260510164514 | 73 | 299 | 1.0 | 6.0 | 0.00 | 0.00 | 0.00 | 58 | 1016.6 |
| 20260510163008 | 73 | 294 | 0.0 | 6.0 | 0.00 | 0.00 | 0.00 | 59 | 1016.5 |
| 20260510161505 | 72 | 180 | 0.0 | 5.0 | 0.00 | 0.00 | 0.00 | 58 | 1016.3 |
| 20260510160005 | 73 | 302 | 2.0 | 8.0 | 0.00 | 0.00 | 0.00 | 57 | 1016.3 |
| 20260510154503 | 72 | 313 | 1.0 | 7.0 | 0.00 | 0.00 | 0.00 | 56 | 1016.1 |
| 20260510153003 | 72 | 178 | 2.0 | 5.0 | 0.00 | 0.00 | 0.00 | 58 | 1016.1 |
| 20260510151603 | 72 | 198 | 1.0 | 5.0 | 0.00 | 0.00 | 0.00 | 60 | 1016.1 |
| 20260510150057 | 71 | 280 | 0.0 | 4.0 | 0.00 | 0.00 | 0.00 | 62 | 1016.0 |
| 20260510144557 | 71 | 302 | 1.0 | 6.0 | 0.00 | 0.00 | 0.00 | 62 | 1016.1 |
| 20260510143054 | 70 | 305 | 0.0 | 4.0 | 0.00 | 0.00 | 0.00 | 64 | 1016.0 |
| 20260510141600 | 69 | 298 | 0.0 | 3.0 | 0.00 | 0.00 | 0.00 | 65 | 1015.8 |
| 20260510140053 | 69 | 174 | 0.0 | 6.0 | 0.00 | 0.00 | 0.00 | 65 | 1015.9 |
| 20260510134554 | 68 | 298 | 0.0 | 3.0 | 0.00 | 0.00 | 0.00 | 67 | 1015.6 |
| 20260510133100 | 66 | 219 | 0.0 | 5.0 | 0.00 | 0.00 | 0.00 | 69 | 1015.5 |
| 20260510131540 | 64 | 185 | 0.0 | 7.0 | 0.00 | 0.00 | 0.00 | 71 | 1015.3 |
| 20260510130038 | 62 | 190 | 0.0 | 3.0 | 0.00 | 0.00 | 0.00 | 75 | 1015.2 |
| 20260510124540 | 61 | 210 | 0.0 | 3.0 | 0.00 | 0.00 | 0.00 | 77 | 1015.1 |
| 20260510123045 | 61 | 211 | 0.0 | 0.0 | 0.00 | 0.00 | 0.00 | 79 | 1014.7 |
| 20260510121534 | 60 | 211 | 0.0 | 0.0 | 0.00 | 0.00 | 0.00 | 80 | 1014.3 |
| 20260510120033 | 60 | 211 | 0.0 | 0.0 | 0.00 | 0.00 | 0.00 | 78 | 1014.0 |
| 20260510114534 | 60 | 211 | 0.0 | 0.0 | 0.00 | 0.00 | 0.00 | 77 | 1014.0 |
| 20260510113040 | 60 | 211 | 0.0 | 0.0 | 0.00 | 0.00 | 0.00 | 76 | 1013.9 |
| 20260510111531 | 60 | 211 | 0.0 | 0.0 | 0.00 | 0.00 | 0.00 | 76 | 1013.9 |
| 20260510110030 | 60 | 211 | 0.0 | 0.0 | 0.00 | 0.00 | 0.00 | 75 | 1013.9 |
| 20260510104527 | 60 | 211 | 0.0 | 0.0 | 0.00 | 0.00 | 0.00 | 75 | 1013.6 |
| 20260510103027 | 60 | 211 | 0.0 | 0.0 | 0.00 | 0.00 | 0.00 | 76 | 1013.2 |
| 20260510101527 | 60 | 211 | 0.0 | 0.0 | 0.00 | 0.00 | 0.00 | 76 | 1013.1 |
| 20260510100025 | 59 | 211 | 0.0 | 0.0 | 0.00 | 0.00 | 0.00 | 75 | 1013.0 |
| 20260510094526 | 59 | 211 | 0.0 | 0.0 | 0.00 | 0.00 | 0.00 | 76 | 1013.1 |
| 20260510093027 | 59 | 211 | 0.0 | 0.0 | 0.00 | 0.00 | 0.00 | 76 | 1013.1 |
| 20260510091524 | 59 | 211 | 0.0 | 0.0 | 0.00 | 0.00 | 0.00 | 76 | 1012.7 |
| 20260510090023 | 59 | 211 | 0.0 | 0.0 | 0.00 | 0.00 | 0.00 | 76 | 1012.5 |
| 20260510084522 | 59 | 211 | 0.0 | 0.0 | 0.00 | 0.00 | 0.00 | 76 | 1012.6 |
| 20260510083022 | 59 | 211 | 0.0 | 0.0 | 0.00 | 0.00 | 0.00 | 76 | 1012.5 |
| 20260510081521 | 59 | 211 | 0.0 | 0.0 | 0.00 | 0.00 | 0.00 | 76 | 1012.4 |
| 20260510080019 | 59 | 211 | 0.0 | 0.0 | 0.00 | 0.00 | 0.00 | 75 | 1012.3 |
| 20260510074521 | 59 | 211 | 0.0 | 0.0 | 0.00 | 0.00 | 0.00 | 75 | 1012.0 |
| 20260510073018 | 59 | 211 | 0.0 | 0.0 | 0.00 | 0.00 | 0.00 | 74 | 1011.9 |
| 20260510071516 | 60 | 211 | 0.0 | 0.0 | 0.00 | 0.00 | 0.00 | 73 | 1012.0 |
| 20260510070014 | 60 | 211 | 0.0 | 0.0 | 0.00 | 0.00 | 0.00 | 73 | 1012.0 |
| 20260510064514 | 60 | 211 | 0.0 | 0.0 | 0.00 | 0.00 | 0.00 | 73 | 1011.9 |
| 20260510063012 | 61 | 211 | 0.0 | 0.0 | 0.00 | 0.00 | 0.00 | 71 | 1012.0 |
| 20260510061510 | 61 | 211 | 0.0 | 0.0 | 0.00 | 0.00 | 0.00 | 69 | 1012.0 |
| 20260510060015 | 62 | 211 | 0.0 | 0.0 | 0.00 | 0.00 | 0.00 | 69 | 1012.1 |
| 20260510054506 | 62 | 211 | 0.0 | 0.0 | 0.00 | 0.00 | 0.00 | 68 | 1012.2 |
| 20260510053004 | 63 | 211 | 0.0 | 0.0 | 0.00 | 0.00 | 0.00 | 67 | 1012.2 |
| 20260510051505 | 63 | 211 | 0.0 | 0.0 | 0.00 | 0.00 | 0.00 | 66 | 1012.2 |
| 20260510050001 | 64 | 211 | 0.0 | 0.0 | 0.00 | 0.00 | 0.00 | 65 | 1012.2 |
| 20260510044603 | 64 | 211 | 0.0 | 0.0 | 0.00 | 0.00 | 0.00 | 65 | 1012.2 |
| 20260510043109 | 64 | 211 | 0.0 | 0.0 | 0.00 | 0.00 | 0.00 | 64 | 1012.2 |
| 20260510041559 | 65 | 211 | 0.0 | 0.0 | 0.00 | 0.00 | 0.00 | 65 | 1012.1 |
| 20260510040106 | 65 | 211 | 0.0 | 0.0 | 0.00 | 0.00 | 0.00 | 63 | 1012.1 |
| 20260510034555 | 65 | 211 | 0.0 | 0.0 | 0.00 | 0.00 | 0.00 | 63 | 1012.2 |
| 20260510033055 | 66 | 218 | 0.0 | 0.0 | 0.00 | 0.00 | 0.00 | 62 | 1012.2 |
| 20260510031558 | 66 | 218 | 0.0 | 1.0 | 0.00 | 0.00 | 0.00 | 61 | 1012.3 |
| 20260510030053 | 67 | 219 | 0.0 | 0.0 | 0.00 | 0.00 | 0.00 | 60 | 1012.2 |
| 20260510024552 | 67 | 219 | 0.0 | 0.0 | 0.00 | 0.00 | 0.00 | 59 | 1012.0 |
| 20260510023051 | 68 | 219 | 0.0 | 0.0 | 0.00 | 0.00 | 0.00 | 58 | 1011.9 |
| 20260510021550 | 69 | 219 | 0.0 | 0.0 | 0.00 | 0.00 | 0.00 | 57 | 1011.7 |
| 20260510020049 | 70 | 219 | 0.0 | 0.0 | 0.00 | 0.00 | 0.00 | 54 | 1011.4 |
| 20260510014548 | 70 | 219 | 0.0 | 0.0 | 0.00 | 0.00 | 0.00 | 53 | 1011.1 |
| 20260510013046 | 71 | 219 | 0.0 | 0.0 | 0.00 | 0.00 | 0.00 | 52 | 1010.9 |
| 20260510011545 | 72 | 219 | 0.0 | 1.0 | 0.00 | 0.00 | 0.00 | 49 | 1010.7 |
| 20260510010044 | 73 | 223 | 0.0 | 3.0 | 0.00 | 0.00 | 0.00 | 48 | 1010.4 |
| 20260510004544 | 73 | 225 | 0.0 | 4.0 | 0.00 | 0.00 | 0.00 | 47 | 1010.3 |
| 20260510003048 | 74 | 165 | 1.0 | 6.0 | 0.00 | 0.00 | 0.00 | 46 | 1010.0 |
| 20260510001549 | 74 | 211 | 0.0 | 5.0 | 0.00 | 0.00 | 0.00 | 45 | 1009.8 |
| 20260510000043 | 74 | 207 | 1.0 | 8.0 | 0.00 | 0.00 | 0.00 | 45 | 1009.6 |
| 20260509234543 | 75 | 206 | 1.0 | 8.0 | 0.00 | 0.00 | 0.00 | 45 | 1009.4 |
| 20260509233046 | 75 | 195 | 1.0 | 8.0 | 0.00 | 0.00 | 0.00 | 45 | 1009.3 |
| 20260509231541 | 76 | 200 | 2.0 | 6.0 | 0.00 | 0.00 | 0.00 | 44 | 1009.4 |
| 20260509230041 | 77 | 224 | 0.0 | 9.0 | 0.00 | 0.00 | 0.00 | 42 | 1009.3 |
| 20260509224554 | 78 | 218 | 2.0 | 7.0 | 0.00 | 0.00 | 0.00 | 41 | 1009.1 |
| 20260509223046 | 79 | 221 | 1.0 | 11.0 | 0.00 | 0.00 | 0.00 | 43 | 1009.1 |
| 20260509221559 | 80 | 274 | 1.0 | 4.0 | 0.00 | 0.00 | 0.00 | 44 | 1009.2 |
| 20260509220042 | 79 | 195 | 2.0 | 7.0 | 0.00 | 0.00 | 0.00 | 42 | 1009.1 |
| 20260509214540 | 79 | 198 | 2.0 | 7.0 | 0.00 | 0.00 | 0.00 | 43 | 1009.1 |
| 20260509213039 | 80 | 188 | 3.0 | 7.0 | 0.00 | 0.00 | 0.00 | 42 | 1009.3 |